FENGYUN 3B

Last updated on Mon Jun 22 2026 00:02:46 GMT+0000 (Coordinated Universal Time)

1 37214U 10059A 26172.56789564 .00000611 00000+0 33905-3 0 9990 2 37214 98.9613 218.6016 0022188 171.6777 356.3576 14.14844553808040
UTC large
Height (km)
Speed (km/s)
/
Latitude / Longitude
Inclination (degrees)
Orbital Period (minutes)
Azimuth
Elevation
Range (km)
Doppler Factor

Next 0 passes for location: London (51.5072 / 0.1276)

No passes found over London.
FENGYUN 3B